Weather History for KMRJ - October, 2011

Change the Weather History Date:

Thursday, October 13, 2011

  Actual Average (KLNR) Record (KLNR)
Temperature  
Mean Temperature 59 °F -  
Max Temperature 68 °F 59 °F 78 °F (1996)
Min Temperature 50 °F 37 °F 28 °F (2002)
Degree Days  
Heating Degree Days 6    
Growing Degree Days 9 (Base 50)    
Moisture  
Dew Point 50 °F    
Average Humidity 74    
Maximum Humidity 88    
Minimum Humidity 40    
Precipitation  
Precipitation 0.13 in - - ()
Sea Level Pressure  
Sea Level Pressure 29.57 in    
Wind  
Wind Speed 7 mph (WNW)    
Max Wind Speed 18 mph    
Max Gust Speed 29 mph    
Visibility 8 miles    
Events Rain    
Averages and records for this station are not official NWS values.
T = Trace of Precipitation, MM = Missing Value Source: NWS Daily Summary

Daily Weather History Graph

Daily Weather History Graph

Search for Another Location

Airport or City:

Trip Planner

Search our weather history database for the weather conditions in past years. The results will help you decide how hot, cold, wet, or windy it might be!

Date:

Astronomy

Oct. 13, 2011 Rise Set
Actual Time 7:11 AM CDT 6:22 PM CDT
Civil Twilight 6:43 AM CDT 6:50 PM CDT
Nautical Twilight 6:10 AM CDT 7:23 PM CDT
Astronomical Twilight 5:37 AM CDT 7:56 PM CDT
Moon 6:53 PM CDT (10/13) 8:47 AM CDT (10/13)
Length of Visible Light 12h 07m
Length of Day
11h 10m
Full, 98% of the Moon is Illuminated
Oct 13
Full
Oct 19
Last Quarter
Oct 26
New
Nov 2
First Quarter
Nov 10
Full

Hourly Weather History & Observations

Time (CDT) Temp. Dew Point Humidity Pressure Visibility Wind Dir Wind Speed Gust Speed Precip Events Conditions
12:15 AM 60.8 °F 57.2 °F 88% 29.61 in 5.0 mi ESE 5.8 mph - N/A   Overcast
12:35 AM 60.8 °F 57.2 °F 88% 29.61 in 5.0 mi ESE 3.5 mph - 0.01 in   Overcast
12:55 AM 60.8 °F 57.2 °F 88% 29.61 in 5.0 mi ESE 6.9 mph - 0.01 in Rain Light Rain
1:15 AM 60.8 °F 57.2 °F 88% 29.60 in 3.0 mi SSE 4.6 mph - N/A Rain Rain
1:55 AM 60.8 °F 57.2 °F 88% 29.59 in 4.0 mi SSE 6.9 mph - 0.01 in Rain Light Rain
2:15 AM 60.8 °F 57.2 °F 88% 29.59 in 3.0 mi SSE 4.6 mph - 0.01 in Rain Light Rain
2:35 AM 60.8 °F 57.2 °F 88% 29.59 in 4.0 mi SSE 4.6 mph - 0.01 in   Overcast
3:15 AM 60.8 °F 55.4 °F 82% 29.58 in 3.0 mi Calm Calm - 0.01 in   Overcast
4:35 AM 59.0 °F 55.4 °F 88% 29.57 in 2.5 mi Calm Calm - 0.01 in   Overcast
4:55 AM 59.0 °F 55.4 °F 88% 29.57 in 2.0 mi Calm Calm - 0.01 in   Overcast
5:15 AM 59.0 °F 55.4 °F 88% 29.57 in 0.8 mi Calm Calm - N/A   Overcast
5:35 AM 59.0 °F 55.4 °F 88% 29.58 in 1.8 mi West 4.6 mph - N/A   Overcast
5:55 AM 59.0 °F 55.4 °F 88% 29.57 in 1.8 mi West 3.5 mph - 0.01 in   Overcast
6:15 AM 59.0 °F 55.4 °F 88% 29.57 in 1.5 mi West 4.6 mph - N/A   Overcast
6:55 AM 59.0 °F 55.4 °F 88% 29.57 in 4.0 mi WSW 3.5 mph - N/A   Overcast
7:15 AM 59.0 °F 55.4 °F 88% 29.57 in 3.0 mi Calm Calm - N/A   Overcast
7:35 AM 59.0 °F 55.4 °F 88% 29.57 in 3.0 mi Calm Calm - N/A   Overcast
7:55 AM 59.0 °F 55.4 °F 88% 29.57 in 2.5 mi Calm Calm - N/A   Overcast
8:35 AM 59.0 °F 55.4 °F 88% 29.57 in 2.0 mi WNW 4.6 mph - 0.01 in   Overcast
8:55 AM 59.0 °F 55.4 °F 88% 29.57 in 10.0 mi NW 8.1 mph - 0.01 in   Overcast
9:15 AM 59.0 °F 55.4 °F 88% 29.57 in 10.0 mi NW 11.5 mph 16.1 mph N/A   Overcast
9:35 AM 59.0 °F 53.6 °F 82% 29.57 in 10.0 mi NW 9.2 mph - N/A   Overcast
9:55 AM 59.0 °F 55.4 °F 88% 29.57 in 10.0 mi NW 8.1 mph - N/A   Overcast
10:15 AM 59.0 °F 53.6 °F 82% 29.57 in 10.0 mi NW 11.5 mph 16.1 mph N/A   Overcast
10:35 AM 59.0 °F 53.6 °F 82% 29.57 in 10.0 mi WNW 6.9 mph - 0.01 in   Overcast
10:55 AM 60.8 °F 55.4 °F 82% 29.57 in 10.0 mi NW 8.1 mph - 0.01 in   Overcast
11:15 AM 60.8 °F 53.6 °F 77% 29.57 in 10.0 mi NW 10.4 mph 18.4 mph N/A   Overcast
11:35 AM 60.8 °F 53.6 °F 77% 29.57 in 10.0 mi NW 12.7 mph 18.4 mph 0.01 in   Overcast
11:55 AM 60.8 °F 53.6 °F 77% 29.57 in 10.0 mi WNW 10.4 mph 16.1 mph 0.01 in   Overcast
12:15 PM 60.8 °F 53.6 °F 77% 29.57 in 10.0 mi NNW 10.4 mph 16.1 mph N/A   Overcast
12:35 PM 62.6 °F 53.6 °F 72% 29.56 in 10.0 mi WNW 12.7 mph 17.3 mph N/A   Overcast
12:55 PM 62.6 °F 51.8 °F 68% 29.56 in 10.0 mi WNW 10.4 mph 19.6 mph 0.01 in   Overcast
1:15 PM 62.6 °F 51.8 °F 68% 29.55 in 10.0 mi WNW 9.2 mph 17.3 mph N/A   Overcast
1:35 PM 62.6 °F 51.8 °F 68% 29.54 in 10.0 mi WNW 11.5 mph - N/A   Overcast
1:55 PM 62.6 °F 51.8 °F 68% 29.53 in 10.0 mi WNW 11.5 mph 18.4 mph N/A   Overcast
2:35 PM 64.4 °F 48.2 °F 56% 29.53 in 10.0 mi NW 13.8 mph 23.0 mph 0.01 in   Scattered Clouds
2:55 PM 66.2 °F 46.4 °F 49% 29.52 in 10.0 mi WNW 17.3 mph 24.2 mph 0.01 in   Scattered Clouds
3:15 PM 64.4 °F 44.6 °F 49% 29.52 in 10.0 mi WNW 12.7 mph 20.7 mph N/A   Scattered Clouds
3:35 PM 68.0 °F 44.6 °F 43% 29.51 in 10.0 mi WNW 17.3 mph 25.3 mph N/A   Mostly Cloudy
3:55 PM 68.0 °F 42.8 °F 40% 29.52 in 10.0 mi WNW 18.4 mph 27.6 mph 0.01 in   Scattered Clouds
4:15 PM 66.2 °F 42.8 °F 43% 29.52 in 10.0 mi WNW 15.0 mph 27.6 mph N/A   Clear
4:35 PM 64.4 °F 44.6 °F 49% 29.53 in 10.0 mi NW 13.8 mph 23.0 mph N/A   Clear
4:55 PM 64.4 °F 42.8 °F 45% 29.53 in 10.0 mi NW 13.8 mph 23.0 mph N/A   Clear
5:15 PM 62.6 °F 44.6 °F 52% 29.53 in 10.0 mi WNW 16.1 mph 25.3 mph N/A   Clear
5:35 PM 60.8 °F 46.4 °F 59% 29.55 in 10.0 mi NNW 18.4 mph 28.8 mph 0.01 in   Mostly Cloudy
5:55 PM 57.2 °F 42.8 °F 59% 29.57 in 7.0 mi NW 18.4 mph 26.5 mph 0.01 in   Scattered Clouds
6:15 PM 55.4 °F 42.8 °F 63% 29.57 in 10.0 mi NW 12.7 mph 24.2 mph N/A   Mostly Cloudy
6:35 PM 55.4 °F 42.8 °F 63% 29.57 in 10.0 mi NW 11.5 mph - N/A   Overcast
6:55 PM 55.4 °F 42.8 °F 63% 29.57 in 10.0 mi WNW 5.8 mph - N/A   Overcast
7:15 PM 55.4 °F 44.6 °F 67% 29.58 in 10.0 mi NW 8.1 mph - N/A   Overcast
7:35 PM 55.4 °F 42.8 °F 63% 29.58 in 10.0 mi WNW 15.0 mph 21.9 mph N/A   Overcast
7:55 PM 53.6 °F 42.8 °F 67% 29.58 in 10.0 mi WNW 9.2 mph - N/A   Mostly Cloudy
8:35 PM 53.6 °F 41.0 °F 62% 29.59 in 10.0 mi WNW 10.4 mph - N/A   Overcast
9:15 PM 51.8 °F 42.8 °F 71% 29.59 in 10.0 mi WNW 8.1 mph - N/A   Scattered Clouds
9:35 PM 51.8 °F 42.8 °F 71% 29.59 in 10.0 mi WNW 8.1 mph - N/A   Clear
9:55 PM 51.8 °F 42.8 °F 71% 29.58 in 10.0 mi WNW 9.2 mph - N/A   Clear
10:15 PM 51.8 °F 42.8 °F 71% 29.59 in 10.0 mi WNW 9.2 mph - N/A   Clear
10:35 PM 50.0 °F 42.8 °F 76% 29.59 in 10.0 mi WNW 9.2 mph - N/A   Clear
10:55 PM 50.0 °F 42.8 °F 76% 29.59 in 10.0 mi West 11.5 mph - N/A   Clear
11:15 PM 50.0 °F 42.8 °F 76% 29.59 in 10.0 mi West 10.4 mph - N/A   Clear
11:35 PM 50.0 °F 42.8 °F 76% 29.59 in 10.0 mi West 10.4 mph - N/A   Clear
11:55 PM 50.0 °F 42.8 °F 76% 29.59 in 10.0 mi WNW 8.1 mph - N/A   Clear